Vorticity
nan nan nan nan nan nan nan nan nan nan nan nan nan nan nan nan nan nan nan nan nan nan nan nan nan nan nan nan nan nan nan nan nan nan nan nan nan nan nan nan nan nan nan nan nan
nan 7 6 6 6 6 6 6 5 5 5 6 7 7 7 8 14 28 20 11 10 6 2 10 6 7 7 6 8 4 4 4 1 1 8 9 7 10 5 3 4 8 12 10 nan
nan 7 7 6 6 6 7 6 5 5 5 6 6 6 6 14 24 27 10 5 12 9 9 7 8 8 4 7 6 3 -0 3 4 -1 3 9 7 8 4 6 6 6 13 7 nan
nan 7 7 6 6 7 8 6 5 5 5 6 6 7 15 18 10 6 11 6 5 9 12 10 11 8 6 6 5 4 5 4 2 2 3 5 9 2 3 6 8 9 10 7 nan
nan 7 9 7 7 7 8 7 6 6 6 6 6 10 17 13 6 5 9 2 1 5 8 10 10 9 7 5 7 7 7 5 5 6 6 5 10 4 6 4 2 10 8 8 nan
nan 5 7 8 7 7 7 7 7 7 6 6 8 14 11 1 6 1 1 3 4 9 12 9 8 6 10 7 7 7 7 7 7 7 5 8 6 6 8 5 8 11 4 6 nan
nan 7 6 7 7 7 7 7 7 7 7 8 14 14 12 4 -5 3 11 9 5 3 7 14 11 8 11 8 8 6 4 11 14 9 6 10 9 6 6 9 12 12 6 9 nan
nan 9 8 8 8 7 6 7 7 7 9 14 17 13 9 15 8 10 16 15 9 5 7 4 6 12 13 15 14 14 12 9 10 8 9 7 6 10 11 19 12 7 10 10 nan
nan 7 8 8 8 7 6 6 8 15 17 17 13 6 6 15 14 10 12 13 15 11 8 9 12 8 11 15 13 13 12 11 8 8 13 12 7 9 6 11 11 10 8 9 nan
nan 6 7 7 7 6 10 19 26 25 18 9 6 5 3 -6 -1 10 8 12 15 13 7 11 12 10 7 10 8 7 6 3 8 18 11 8 9 6 14 9 5 5 10 12 nan
nan 7 8 8 6 7 14 22 31 16 6 4 4 -5 -3 -1 1 11 10 10 7 9 7 11 9 11 4 2 2 3 2 9 15 11 15 10 2 6 12 8 7 8 12 8 nan
nan 8 8 8 7 11 16 11 5 7 10 15 11 9 15 13 11 7 8 11 7 6 9 6 9 2 3 8 8 4 5 7 6 9 8 11 7 6 8 10 11 9 8 9 nan
nan 8 10 8 12 21 9 7 4 19 14 20 24 19 16 17 16 20 13 4 12 10 11 5 11 9 7 7 11 8 8 4 3 2 11 11 6 8 10 13 10 6 11 13 nan
nan 9 8 12 11 11 13 6 9 13 15 24 15 14 10 6 11 23 18 4 6 12 14 14 18 10 2 14 17 7 10 6 8 8 12 3 6 15 19 9 8 10 7 8 nan
nan 7 10 7 10 4 6 7 12 6 15 16 8 7 8 1 8 22 17 9 5 6 6 -1 18 22 4 12 10 6 1 9 18 11 6 7 7 10 11 16 17 14 7 8 nan
nan 6 9 13 10 5 2 10 17 11 15 6 6 7 7 6 0 7 10 4 9 14 5 3 -3 9 14 5 11 15 10 12 17 17 15 10 5 7 6 23 25 12 12 14 nan
nan 8 8 8 4 8 13 17 9 6 10 10 4 2 2 4 14 13 10 7 -0 9 6 16 21 6 -1 9 20 15 10 14 20 14 11 10 11 5 9 13 14 13 13 14 nan
nan 11 10 10 8 5 13 13 9 11 -0 1 4 1 3 8 20 11 7 7 7 -2 5 15 28 17 11 15 5 19 9 -4 7 11 15 10 8 19 20 6 3 6 12 7 nan
nan 13 10 10 11 8 14 6 7 4 1 8 7 8 12 13 13 14 15 8 17 10 -0 7 12 17 7 4 5 14 12 -1 -1 5 17 22 11 8 16 10 10 11 10 8 nan
nan 13 13 15 12 8 11 9 -0 -5 6 15 10 4 9 15 7 9 15 17 10 16 10 1 15 18 16 5 3 17 12 10 8 4 8 20 15 10 7 7 5 8 10 16 nan
nan 14 20 20 5 10 13 11 -0 -0 9 9 7 4 7 7 3 7 4 10 12 13 14 12 11 3 8 17 9 14 8 5 8 9 5 9 11 8 5 15 13 6 9 12 nan
nan 9 15 14 3 6 13 6 -0 7 10 8 2 7 7 7 9 10 8 17 4 5 13 15 13 8 4 12 17 7 9 6 11 10 -0 6 7 7 24 10 5 6 10 8 nan
nan 11 7 8 9 5 8 9 6 7 6 5 11 10 6 6 7 10 16 13 6 3 7 14 13 6 17 22 16 12 13 2 1 13 14 11 8 11 6 7 8 4 8 15 nan
nan 14 13 9 7 12 11 13 12 11 6 6 11 6 13 13 9 4 10 6 5 8 5 8 11 11 5 2 19 25 11 8 -0 4 9 7 2 11 13 -2 8 7 3 7 nan
nan 9 12 13 9 8 5 9 15 15 10 7 9 10 9 10 8 5 6 9 11 3 4 9 6 9 9 6 10 15 21 17 7 5 4 6 10 -5 5 14 11 12 13 11 nan
nan 6 8 8 14 18 13 2 8 8 11 11 15 10 9 9 13 12 9 12 11 10 4 5 5 9 17 15 13 14 24 12 12 11 7 9 12 11 6 10 11 11 11 12 nan
nan nan nan nan nan nan nan nan nan nan nan nan nan nan nan nan nan nan nan nan nan nan nan nan nan nan nan nan nan nan nan nan nan nan nan nan nan nan nan nan nan nan nan nan nan
CAPE
0 1 2 3 4 4 2 2 0 0 0 0 0 0 1 0 0 0 0 0 0 0 0 0 0 0 0 0 0 0 0 0 0 0 0 0 0 0 0 0 0 0 0 34 650
0 0 4 3 4 8 4 1 0 0 0 0 0 4 3 0 0 0 0 0 0 0 0 0 0 0 0 0 0 0 0 0 0 0 0 0 0 0 0 0 0 0 20 288 254
18 13 14 11 3 6 13 11 2 0 0 1 1 8 2 0 0 0 0 0 0 0 0 0 0 0 0 0 0 0 0 0 0 0 0 0 0 0 0 0 0 0 2 29 388
4 10 8 2 3 5 15 11 1 0 0 0 2 7 6 0 0 0 0 0 0 0 0 0 0 0 0 0 0 0 0 0 0 0 0 0 0 0 0 0 0 0 0 0 118
9 23 23 16 10 5 8 3 0 0 0 0 2 7 0 0 0 0 0 0 0 0 0 0 0 0 0 0 0 0 0 0 0 0 0 0 0 0 0 0 0 0 13 70 139
31 12 19 30 14 4 3 0 0 0 0 0 1 8 0 0 0 0 0 0 0 0 0 0 0 0 0 0 0 0 0 0 0 0 0 0 0 0 0 0 0 0 2 151 244
34 33 20 20 15 0 0 0 0 0 0 0 1 5 0 0 0 0 0 0 0 0 0 0 0 0 0 0 0 0 0 0 0 0 0 0 0 0 0 0 0 0 0 57 281
19 40 48 32 34 6 0 0 0 0 0 0 0 1 0 0 0 0 0 0 0 0 0 0 0 0 0 0 0 0 0 0 0 0 0 0 0 0 0 0 0 0 0 61 220
18 33 49 31 24 0 0 0 0 0 0 0 0 0 0 0 0 0 0 0 0 0 0 0 0 0 0 0 0 0 0 0 0 0 0 0 0 0 0 0 0 0 23 47 202
22 21 40 36 16 0 0 0 0 0 0 0 0 1 0 0 0 0 0 0 0 0 0 0 0 0 0 1 0 0 0 0 0 0 0 0 0 0 0 1 0 0 6 60 248
9 16 25 30 15 0 0 0 0 0 0 0 0 0 0 0 0 0 0 0 0 0 0 0 0 0 0 0 0 0 0 0 0 0 0 0 0 0 0 0 14 0 0 76 324
40 29 24 15 3 0 0 2 2 0 0 0 0 0 0 0 0 0 0 0 0 3 10 0 0 0 0 0 0 0 0 0 0 0 0 0 0 0 0 0 4 14 10 28 321
35 33 33 30 0 0 2 11 2 16 3 0 0 0 0 0 0 0 0 0 0 12 14 15 0 0 0 0 5 1 0 0 0 0 0 0 0 0 0 0 0 7 3 33 301
42 43 62 19 0 0 0 13 18 28 8 0 0 0 0 0 0 0 0 0 4 1 18 24 3 0 0 0 0 1 0 0 4 0 0 3 0 0 0 0 0 0 0 0 57
40 41 54 20 0 0 1 13 26 14 2 0 0 0 0 0 0 0 0 0 3 6 15 8 1 9 1 0 3 0 2 7 0 3 5 0 0 0 0 0 0 0 0 0 0
42 40 53 0 10 0 19 12 35 24 1 0 0 0 0 0 0 0 0 0 0 1 21 0 0 0 0 0 0 2 0 0 23 21 2 0 0 0 0 1 0 11 0 0 1
60 43 40 15 4 2 8 30 36 3 0 0 0 0 0 0 0 2 0 0 0 1 0 0 0 2 0 0 0 0 3 3 15 18 4 0 0 0 0 0 0 0 0 1 4
71 64 28 15 5 36 35 42 24 0 0 0 0 0 0 0 0 30 0 0 0 5 12 7 8 0 0 0 0 2 0 14 12 16 0 0 0 0 5 0 0 0 0 12 4
81 38 51 50 42 47 71 35 0 0 0 0 0 0 0 0 1 0 43 9 0 1 1 13 6 6 0 0 0 0 0 0 0 0 28 8 0 5 0 0 0 0 0 0 1
48 56 45 87 88 99 37 18 2 0 0 0 0 0 0 0 26 42 60 0 1 0 1 3 21 1 0 0 0 2 0 1 18 0 9 125 18 29 1 0 0 0 11 11 17
47 67 0 83 158 73 16 24 0 0 0 0 0 0 0 2 9 21 47 4 1 0 0 3 9 1 0 15 0 0 1 2 10 3 43 77 97 6 2 4 2 9 4 8 48
58 52 59 162 64 39 30 28 13 5 2 0 0 0 0 1 17 29 43 19 0 0 0 5 8 0 0 0 10 11 0 0 10 0 0 36 52 67 31 6 23 0 5 1 3
163 21 48 224 43 74 28 27 22 16 3 2 4 0 0 0 8 21 34 19 0 0 0 0 5 0 0 0 4 7 0 0 2 19 26 58 0 5 0 0 0 0 10 29 11
191 57 35 227 54 44 29 41 30 25 5 8 12 16 22 7 11 41 45 45 1 0 0 2 5 3 4 1 3 6 3 1 10 1 18 5 37 2 0 0 0 0 1 0 15
159 32 37 54 85 42 19 48 33 32 16 12 15 11 22 72 43 58 36 3 0 0 0 4 56 43 7 0 3 8 1 0 3 12 27 1 0 0 0 0 3 0 0 0 0
239 16 13 50 41 45 19 16 20 31 40 10 41 25 22 40 45 39 48 9 45 22 1 9 8 1 0 0 0 14 6 1 0 0 33 8 0 0 0 1 23 20 0 0 0
34 22 77 28 47 33 77 28 11 16 8 32 18 64 50 62 63 60 80 43 75 44 23 3 5 28 2 11 4 6 2 0 0 0 0 13 0 0 0 0 3 0 0 0 0